STARLINK-30065 (55701 NORAD) Tracking and Keplerian Element Data

This shows tracking and keplerian element data for the satellite.

Feedback or suggestion? Click here.




ElementValue
Catalog55701
NameSTARLINK-30065
Epoch Orbit130
Epoch Day62.91667824
Epoch Year2023
RAAN259.6189
Inclination43.0102
Eccentricity0.0001623
Argument of Perigee278.9633
Mean Anonmoly179.7405
Mean Motion15.65141738
Decay Rate-0.00796957
L11 55701U 23026G 23062.91667824 -.00796957 00000+0 -86387-2 0 9995
L22 55701 43.0102 259.6189 0001623 278.9633 179.7405 15.65141738 1308



Live tracking and technical data element details for STARLINK-30065 (NORAD 55701). STARLINK-30065 can be tracked NOW for your location showing map with azimuth and elevation plus other details from your city location.







IsCatalogInMostPopularTable: catalog: 55701, numindb: 1
Update: records affected: 1



GetName: 55701 STARLINK-30065

Hit Count: updated at: Wed, 22 Mar 2023 15:00:10 GMT